Weather History for Durango, CO

Change the Weather History Date:

Monday, December 31, 2012

  Actual Average Record
Temperature  
Mean Temperature 16 °F 24 °F  
Max Temperature 28 °F 37 °F 68 °F (1996)
Min Temperature 3 °F 10 °F -11 °F (2010)
Degree Days  
Heating Degree Days 49 41  
Month to date heating degree days 1289 1201  
Since 1 July heating degree days 2738 2874  
Cooling Degree Days 0 0  
Month to date cooling degree days 0 0  
Year to date cooling degree days 477 243  
Moisture  
Dew Point 20 °F    
Average Humidity 87    
Maximum Humidity 100    
Minimum Humidity 73    
Precipitation  
Precipitation 0.03 in 0.06 in 0.28 in (1973)
Month to date precipitation 0.93 1.17  
Year to date precipitation 7.84 16.07  
Sea Level Pressure  
Sea Level Pressure 29.87 in    
Wind  
Wind Speed 8 mph (SW)    
Max Wind Speed 21 mph    
Max Gust Speed 28 mph    
Visibility 6 miles    
Events Snow    
T = Trace of Precipitation, MM = Missing Value Source: NWS Daily Summary

Daily Weather History Graph

Daily Weather History Graph

Search for Another Location

Airport:

Trip Planner

Search our weather history database for the weather conditions in past years. The results will help you decide how hot, cold, wet, or windy it might be!

Date:

Astronomy

Dec. 31, 2012 Rise Set
Actual Time 7:24 AM MST 5:04 PM MST
Civil Twilight 6:55 AM MST 5:33 PM MST
Nautical Twilight 6:23 AM MST 6:05 PM MST
Astronomical Twilight 5:51 AM MST 6:37 PM MST
Moon 8:32 PM MST (12/31) 9:12 AM MST (12/31)
Length of Visible Light 10h 37m
Length of Day
9h 39m
Waning Gibbous, 90% of the Moon is Illuminated
Dec 31
Waning Gibbous
Jan 4
Last Quarter
Jan 11
New
Jan 18
First Quarter
Jan 26
Full

Hourly Weather History & Observations

Time (MST) Temp. Windchill Dew Point Humidity Pressure Visibility Wind Dir Wind Speed Gust Speed Precip Events Conditions
12:33 AM 26.6 °F 22.6 °F 24.8 °F 93% 29.80 in 2.5 mi SW 3.5 mph - 0.00 in Snow Light Snow
12:37 AM 26.6 °F - 26.6 °F 100% 29.80 in 1.2 mi Calm Calm - 0.00 in Snow Light Snow
12:53 AM 27.0 °F - 26.1 °F 96% 29.86 in 1.2 mi Calm Calm - 0.01 in Snow Light Snow
1:00 AM 26.6 °F - 24.8 °F 93% 29.80 in 0.8 mi Calm Calm - 0.00 in Snow Light Snow
1:20 AM 26.6 °F 22.6 °F 26.6 °F 100% 29.79 in 1.0 mi East 3.5 mph - 0.01 in Snow Light Snow
1:34 AM 26.6 °F 22.6 °F 26.6 °F 100% 29.78 in 1.5 mi ESE 3.5 mph - 0.02 in Snow Light Snow
1:53 AM 27.0 °F - 26.1 °F 96% 29.83 in 3.0 mi Calm Calm - 0.02 in Snow Light Snow
2:06 AM 26.6 °F - 26.6 °F 100% 29.79 in 5.0 mi Calm Calm - 0.00 in   Overcast
2:10 AM 26.6 °F - 24.8 °F 93% 29.78 in 5.0 mi Calm Calm - 0.00 in   Overcast
2:23 AM 26.6 °F 21.2 °F 24.8 °F 93% 29.79 in 2.5 mi ESE 4.6 mph - 0.00 in Snow Light Snow
2:35 AM 24.8 °F 20.5 °F 24.8 °F 100% 29.79 in 4.0 mi East 3.5 mph - 0.00 in Snow Light Snow
2:53 AM 24.1 °F 17.0 °F 23.0 °F 96% 29.83 in 10.0 mi ENE 5.8 mph - 0.00 in   Overcast
3:53 AM 23.0 °F - 21.9 °F 96% 29.83 in 8.0 mi Calm Calm - N/A   Overcast
4:07 AM 23.0 °F - 21.2 °F 93% 29.77 in 8.0 mi Calm Calm - N/A   Overcast
4:21 AM 24.8 °F - 23.0 °F 93% 29.77 in 7.0 mi Calm Calm - N/A   Overcast
4:38 AM 23.0 °F - 23.0 °F 100% 29.77 in 7.0 mi Calm Calm - N/A   Overcast
5:53 AM 21.0 °F - 19.9 °F 96% 29.86 in 7.0 mi Calm Calm - N/A   Overcast
6:14 AM 21.2 °F - 19.4 °F 93% 29.76 in 5.0 mi Calm Calm - N/A   Overcast
6:44 AM 21.2 °F - 19.4 °F 93% 29.77 in 2.5 mi Calm Calm - 0.00 in Snow Light Snow
6:51 AM 21.2 °F 16.4 °F 19.4 °F 93% 29.77 in 3.0 mi NE 3.5 mph - 0.00 in Snow Light Snow
6:53 AM 21.0 °F - 19.9 °F 96% 29.88 in 3.0 mi Calm Calm - 0.00 in Snow Light Snow
7:08 AM 21.2 °F - 21.2 °F 100% 29.78 in 4.0 mi Calm Calm - 0.00 in   Overcast
7:53 AM 23.0 °F - 21.9 °F 96% 29.88 in 5.0 mi Calm Calm - 0.00 in   Overcast
8:05 AM 23.0 °F 18.4 °F 21.2 °F 93% 29.80 in 4.0 mi WSW 3.5 mph - 0.00 in Snow Light Snow
8:18 AM 24.8 °F 20.5 °F 23.0 °F 93% 29.80 in 2.0 mi WSW 3.5 mph - 0.00 in Snow Light Snow
8:27 AM 24.8 °F 17.9 °F 23.0 °F 93% 29.80 in 1.2 mi SW 5.8 mph - 0.00 in Snow Light Snow
8:34 AM 24.8 °F 19.1 °F 23.0 °F 93% 29.81 in 2.0 mi South 4.6 mph - 0.00 in Snow Light Snow
8:53 AM 25.0 °F 19.3 °F 23.0 °F 92% 29.91 in 2.5 mi SW 4.6 mph - 0.00 in Snow Light Snow
9:00 AM 24.8 °F 19.1 °F 23.0 °F 93% 29.82 in 3.0 mi WSW 4.6 mph - 0.00 in Snow Light Snow
9:18 AM 24.8 °F 19.1 °F 24.8 °F 100% 29.82 in 3.0 mi WSW 4.6 mph - 0.00 in Snow Light Snow
9:33 AM 26.6 °F 20.0 °F 24.8 °F 93% 29.82 in 2.5 mi SSW 5.8 mph - 0.00 in Snow Light Snow
9:38 AM 26.6 °F 21.2 °F 24.8 °F 93% 29.83 in 3.0 mi SW 4.6 mph - 0.00 in Snow Light Snow
9:53 AM 26.1 °F 18.4 °F 24.1 °F 92% 29.92 in 10.0 mi SSW 6.9 mph - 0.00 in   Overcast
10:08 AM 26.6 °F 20.0 °F 24.8 °F 93% 29.83 in 10.0 mi SW 5.8 mph - N/A   Overcast
10:53 AM 28.0 °F 18.6 °F 24.1 °F 85% 29.92 in 10.0 mi SW 10.4 mph - N/A   Overcast
11:07 AM 26.6 °F 16.8 °F 24.8 °F 93% 29.83 in 10.0 mi SW 10.4 mph - N/A   Overcast
11:53 AM 26.1 °F 16.2 °F 24.1 °F 92% 29.91 in 9.0 mi SSW 10.4 mph - N/A   Overcast
12:34 PM 24.8 °F 14.0 °F 23.0 °F 93% 29.81 in 10.0 mi SW 11.5 mph - N/A   Overcast
12:44 PM 24.8 °F 12.9 °F 23.0 °F 93% 29.81 in 10.0 mi SW 13.8 mph - N/A   Overcast
12:53 PM 25.0 °F 13.1 °F 21.9 °F 88% 29.91 in 10.0 mi SW 13.8 mph - N/A   Overcast
1:00 PM 24.8 °F 13.4 °F 21.2 °F 86% 29.81 in 10.0 mi SSW 12.7 mph - N/A   Overcast
1:44 PM 26.6 °F 15.2 °F 23.0 °F 86% 29.81 in 10.0 mi SW 13.8 mph - N/A   Overcast
1:51 PM 26.6 °F 16.8 °F 23.0 °F 86% 29.81 in 9.0 mi SW 10.4 mph - N/A   Overcast
1:53 PM 27.0 °F 16.7 °F 23.0 °F 85% 29.91 in 9.0 mi SW 11.5 mph - N/A   Overcast
2:11 PM 26.6 °F 14.3 °F 21.2 °F 80% 29.82 in 8.0 mi SW 16.1 mph 23.0 mph 0.00 in   Overcast
2:18 PM 26.6 °F 14.7 °F 21.2 °F 80% 29.82 in 10.0 mi WSW 15.0 mph - 0.00 in   Overcast
2:53 PM 25.0 °F 11.3 °F 18.0 °F 75% 29.94 in 10.0 mi WSW 18.4 mph 26.5 mph 0.00 in   Partly Cloudy
3:53 PM 24.1 °F 11.5 °F 17.1 °F 75% 29.96 in 10.0 mi WSW 15.0 mph 25.3 mph N/A   Partly Cloudy
4:53 PM 21.9 °F 9.8 °F 15.1 °F 75% 30.00 in 10.0 mi SW 12.7 mph - N/A   Clear
5:53 PM 19.9 °F 7.9 °F 12.9 °F 74% 30.03 in 10.0 mi WSW 11.5 mph 20.7 mph N/A   Partly Cloudy
6:53 PM 18.0 °F 7.7 °F 12.0 °F 78% 30.07 in 10.0 mi WSW 8.1 mph - N/A   Mostly Cloudy
7:53 PM 16.0 °F 7.4 °F 12.0 °F 84% 30.09 in 10.0 mi SW 5.8 mph - N/A   Clear
8:53 PM 9.0 °F 0.6 °F 8.1 °F 96% 30.14 in 10.0 mi NE 4.6 mph - N/A   Clear
9:34 PM 10.4 °F 0.8 °F 8.6 °F 92% 29.97 in 10.0 mi North 5.8 mph - N/A   Mostly Cloudy
9:53 PM 10.9 °F 0.2 °F 8.1 °F 88% 30.15 in 10.0 mi North 6.9 mph - N/A   Overcast
10:53 PM 10.0 °F 3.6 °F 7.0 °F 87% 30.17 in 8.0 mi ENE 3.5 mph - N/A   Overcast
11:31 PM 8.6 °F - 5.0 °F 85% 30.01 in 8.0 mi Calm Calm - N/A   Mostly Cloudy
11:39 PM 8.6 °F 2.0 °F 5.0 °F 85% 30.01 in 10.0 mi NE 3.5 mph - N/A   Mostly Cloudy
11:53 PM 3.9 °F - 1.9 °F 91% 30.22 in 8.0 mi Calm Calm - N/A   Overcast